DW9728 Weather Reports


time (UTC)temp
C
wind
direction
speed
KPH
gust
KPH
rain 1hr
cm
rain 24hr
cm
rain mn
cm
humidity
%
barometer
mb
20260502130453 11 145 1.6 8.0 0.00 2.08 0.00 86 1021.1
20260502121953 10 143 3.2 9.7 0.00 2.11 0.00 89 1020.0
20260502120153 10 146 3.2 9.7 0.00 2.13 0.00 90 1019.8
20260502115253 10 140 3.2 11.3 0.00 2.18 0.00 90 1019.6
20260502114353 10 143 3.2 9.7 0.00 2.26 0.00 91 1019.6
20260502113453 10 147 3.2 9.7 0.00 2.31 0.00 91 1019.6
20260502111653 10 147 3.2 8.0 0.00 2.46 0.00 91 1019.5
20260502110753 10 144 3.2 8.0 0.00 2.59 0.00 91 1019.4
20260502105853 10 150 3.2 9.7 0.00 2.74 0.00 91 1019.3
20260502104053 10 139 1.6 9.7 0.00 2.84 0.00 92 1019.2
20260502103153 10 138 0.0 6.4 0.00 2.87 0.00 93 1019.1
20260502090153 10 143 3.2 8.0 0.00 3.56 0.00 91 1017.7
20260502071353 11 142 1.6 6.4 0.00 4.70 0.00 91 1017.4
20260502070453 11 144 1.6 9.7 0.00 4.75 0.00 91 1017.4
20260502065553 11 145 1.6 9.7 0.00 4.78 0.00 90 1017.4
20260502064653 11 141 3.2 9.7 0.00 4.83 0.00 90 1017.4
20260502063753 11 143 3.2 8.0 0.00 4.90 0.00 90 1017.4
20260502062853 11 145 3.2 12.9 0.00 4.93 0.00 90 1017.3
20260502061953 11 145 3.2 12.9 0.00 4.98 0.00 90 1017.3
20260502061053 11 144 3.2 12.9 0.00 5.08 0.00 91 1017.2
20260502060153 11 143 1.6 8.0 0.00 5.16 0.00 91 1017.3
20260502054353 11 150 1.6 9.7 0.00 5.21 0.00 91 1017.6
20260502053453 11 138 1.6 4.8 0.00 5.21 0.00 90 1017.8
20260502052553 11 142 1.6 9.7 0.00 5.21 0.00 90 1017.4
20260502051653 11 146 1.6 8.0 0.00 5.21 0.00 90 1017.4
20260502050753 11 147 3.2 11.3 0.00 5.21 0.00 90 1017.3
20260502045853 11 156 3.2 11.3 0.00 5.21 5.21 89 1017.3
20260502044953 11 155 3.2 9.7 0.00 5.21 5.21 89 1017.1
20260502044053 11 155 3.2 9.7 0.00 5.21 5.21 89 1017.2
20260502041353 11 157 4.8 14.5 0.00 5.21 5.21 88 1017.2
20260502040453 11 154 4.8 19.3 0.00 5.21 5.21 89 1017.2
20260502035553 11 152 3.2 20.9 0.00 5.21 5.21 89 1017.2
20260502034653 11 151 4.8 14.5 0.00 5.21 5.21 89 1017.0
20260502033753 11 155 4.8 17.7 0.00 5.21 5.21 89 1017.0
20260502032853 11 150 4.8 12.9 0.00 5.21 5.21 89 1017.0
20260502031953 11 153 4.8 11.3 0.00 5.21 5.21 90 1016.8
20260502031053 11 153 4.8 16.1 0.00 5.21 5.21 90 1016.7
20260502030153 11 151 3.2 16.1 0.00 5.21 5.21 90 1016.4
20260502025253 11 158 4.8 16.1 0.00 5.21 5.21 90 1016.0
20260502022553 12 151 3.2 16.1 0.00 5.21 5.21 91 1015.9
20260502021653 12 156 3.2 11.3 0.00 5.21 5.21 90 1015.7
20260502020753 12 160 4.8 12.9 0.00 5.21 5.21 90 1015.6
20260502014953 12 166 4.8 17.7 0.00 5.21 5.21 90 1015.3
20260502014053 12 160 4.8 22.5 0.00 5.21 5.21 90 1015.2
20260502013153 12 152 4.8 17.7 0.00 5.21 5.21 91 1015.1
20260502011353 13 159 3.2 12.9 0.00 5.21 5.21 92 1014.9
20260502010453 13 165 3.2 20.9 0.00 5.21 5.21 92 1014.7
20260502005553 13 160 4.8 12.9 0.00 5.21 5.21 91 1014.7
20260502004653 13 163 3.2 14.5 0.00 5.21 5.21 91 1014.3
20260502003753 13 169 4.8 9.7 0.00 5.21 5.21 91 1014.3
20260502002853 13 172 4.8 14.5 0.00 5.21 5.21 91 1014.0
20260502001953 13 173 4.8 16.1 0.00 5.21 5.21 91 1013.8
20260501235253 13 163 4.8 17.7 0.00 5.21 5.21 92 1013.2
20260501234353 13 160 4.8 19.3 0.00 5.21 5.21 92 1013.0
20260501233453 13 158 6.4 14.5 0.00 5.21 5.21 92 1012.9
20260501231653 14 163 4.8 17.7 0.03 5.21 5.21 93 1012.9
20260501230753 14 162 4.8 27.4 0.03 5.21 5.21 94 1012.7
20260501225853 14 165 4.8 11.3 0.03 5.21 5.21 94 1012.7
20260501224953 14 154 6.4 20.9 0.08 5.21 5.21 94 1012.7
20260501224053 14 155 6.4 16.1 0.10 5.21 5.21 94 1012.8
20260501223153 14 161 4.8 19.3 0.10 5.21 5.21 95 1012.5
20260501215553 14 143 6.4 14.5 0.10 5.16 5.16 94 1012.1
20260501214653 14 146 6.4 19.3 0.05 5.11 5.11 94 1012.0
20260501213753 14 148 6.4 14.5 0.05 5.11 5.11 94 1011.9
20260501212852 15 153 6.4 20.9 0.05 5.11 5.11 94 1011.7
20260501211953 15 145 6.4 14.5 0.05 5.11 5.11 93 1011.8
20260501211053 15 142 6.4 19.3 0.03 5.08 5.08 93 1011.8
20260501210153 15 146 4.8 16.1 0.03 5.08 5.08 92 1011.3
20260501205253 15 145 4.8 19.3 0.00 5.05 5.05 92 1011.4
20260501204352 15 142 4.8 19.3 0.00 5.05 5.05 92 1011.6
20260501203453 15 149 4.8 19.3 0.00 5.05 5.05 92 1011.1
20260501202553 16 156 4.8 19.3 0.00 5.05 5.05 92 1010.6
20260501201652 16 151 3.2 19.3 0.00 5.05 5.05 92 1010.2
20260501200753 16 177 3.2 14.5 0.00 5.05 5.05 92 1010.0
20260501195853 16 176 3.2 9.7 0.00 5.05 5.05 93 1009.9
20260501194053 16 181 4.8 14.5 0.00 5.05 5.05 94 1010.2
20260501193153 16 158 6.4 19.3 0.00 5.05 5.05 95 1010.7
20260501191352 15 150 6.4 14.5 0.03 5.05 5.05 96 1011.1
20260501185553 15 145 6.4 20.9 0.20 5.05 5.05 96 1011.3
20260501184653 15 147 4.8 16.1 0.25 5.05 5.05 96 1011.3
20260501183752 15 139 6.4 14.5 0.38 5.05 5.05 96 1011.4
20260501182853 15 152 6.4 14.5 0.53 5.05 5.05 96 1010.6
20260501181052 15 147 6.4 16.1 0.74 5.00 5.03 96 1011.3
20260501180153 15 149 8.0 16.1 0.61 4.88 4.90 96 1011.9
20260501175253 15 147 6.4 19.3 0.58 4.85 4.85 96 1012.2
20260501174353 15 156 4.8 16.1 0.48 4.75 4.75 96 1011.6
20260501173452 15 147 3.2 14.5 0.33 4.60 4.62 96 1011.8
20260501172552 15 153 3.2 16.1 0.20 4.47 4.50 95 1011.1
20260501171653 15 145 3.2 11.3 0.03 4.29 4.29 95 1011.9
20260501170752 15 176 3.2 12.9 0.00 4.27 4.27 95 1010.6
20260501165853 15 157 3.2 14.5 0.00 4.27 4.27 95 1010.8
20260501164953 16 162 3.2 12.9 0.00 4.27 4.27 96 1011.2
20260501164052 16 184 1.6 9.7 0.00 4.27 4.27 95 1010.9
20260501163153 16 191 1.6 6.4 0.00 4.27 4.27 96 1010.5
20260501162253 16 185 1.6 9.7 0.33 4.27 4.27 96 1010.7
20260501161352 16 193 1.6 6.4 0.36 4.27 4.27 96 1011.2
20260501155552 16 227 3.2 9.7 0.41 4.27 4.27 96 1010.4
20260501154652 16 232 3.2 9.7 0.41 4.27 4.27 97 1010.5
20260501153753 15 235 3.2 11.3 0.41 4.27 4.27 96 1010.7
20260501152852 15 187 3.2 8.0 0.30 4.17 4.22 96 1011.0
20260501151953 15 126 3.2 14.5 0.08 3.94 3.94 96 1014.3
20260501151052 15 155 3.2 14.5 0.05 3.91 3.91 96 1011.9
20260501150153 15 154 3.2 19.3 0.05 3.89 3.89 96 1011.8
20260501145253 15 161 3.2 19.3 0.23 3.86 3.86 96 1012.2
20260501143453 15 160 3.2 12.9 0.30 3.86 3.86 96 1012.2
20260501142553 15 161 3.2 11.3 0.33 3.86 3.86 96 1012.2